Olathe New Century, KS

3:49 AM CDT on May 27, 2017 (GMT -0500)
New Century Aircenter

Weather History for KIXD - November, 2012

Change the Weather History Date:

Saturday, November 10, 2012

  Actual Average Record
Temperature  
Mean Temperature 68 °F -  
Max Temperature 72 °F 53 °F 72 °F (1999)
Min Temperature 64 °F 35 °F 19 °F (2000)
Cooling Degree Days 3    
Growing Degree Days 18 (Base 50)    
Moisture  
Dew Point 53 °F    
Average Humidity 61    
Maximum Humidity 73    
Minimum Humidity 49    
Precipitation  
Precipitation 0.00 in - - ()
Sea Level Pressure  
Sea Level Pressure 29.74 in    
Wind  
Wind Speed 20 mph (South)    
Max Wind Speed 29 mph    
Max Gust Speed 39 mph    
Visibility 10 miles    
Events      
Averages and records for this station are not official NWS values.
T = Trace of Precipitation, MM = Missing Value Source: NWS Daily Summary

Daily Weather History Graph

Daily Weather History Graph

Search for Another Location

Airport or City:

Trip Planner

Search our weather history database for the weather conditions in past years. The results will help you decide how hot, cold, wet, or windy it might be!

Date:

Astronomy

Nov. 10, 2012 Rise Set
Actual Time 6:57 AM CST 5:09 PM CST
Civil Twilight 6:28 AM CST 5:37 PM CST
Nautical Twilight 5:56 AM CST 6:09 PM CST
Astronomical Twilight 5:25 AM CST 6:40 PM CST
Moon 3:05 AM CST (11/10) 2:55 PM CST (11/10)
Length of Visible Light 11h 08m
Length of Day
10h 12m
Waning Crescent, 14% of the Moon is Illuminated
Nov 10
Waning Crescent
Nov 13
New
Nov 20
First Quarter
Nov 28
Full
Dec 6
Last Quarter

Hourly Weather History & Observations

Time (CST) Temp. Dew Point Humidity Pressure Visibility Wind Dir Wind Speed Gust Speed Precip Events Conditions
12:53 AM 64.9 °F 55.9 °F 73% 29.78 in 10.0 mi South 16.1 mph 23.0 mph N/A   Clear
1:53 AM 64.9 °F 55.0 °F 70% 29.77 in 10.0 mi South 16.1 mph - N/A   Clear
2:53 AM 64.9 °F 55.0 °F 70% 29.77 in 10.0 mi South 17.3 mph 25.3 mph N/A   Clear
3:53 AM 64.9 °F 55.0 °F 70% 29.76 in 10.0 mi South 19.6 mph 29.9 mph N/A   Clear
4:53 AM 64.9 °F 54.0 °F 68% 29.76 in 10.0 mi South 19.6 mph 29.9 mph N/A   Clear
5:53 AM 64.0 °F 53.1 °F 67% 29.77 in 10.0 mi South 17.3 mph 26.5 mph N/A   Clear
6:53 AM 64.0 °F 53.1 °F 67% 29.78 in 10.0 mi South 19.6 mph 28.8 mph N/A   Clear
7:53 AM 64.9 °F 54.0 °F 68% 29.80 in 10.0 mi South 20.7 mph 29.9 mph N/A   Clear
8:53 AM 66.0 °F 55.0 °F 68% 29.80 in 10.0 mi South 26.5 mph 36.8 mph N/A   Clear
9:53 AM 66.9 °F 55.0 °F 66% 29.79 in 10.0 mi South 26.5 mph 36.8 mph N/A   Clear
10:53 AM 68.0 °F 55.9 °F 65% 29.78 in 10.0 mi South 25.3 mph 34.5 mph N/A   Partly Cloudy
11:53 AM 72.0 °F 55.9 °F 57% 29.74 in 10.0 mi South 27.6 mph 35.7 mph N/A   Clear
12:53 PM 72.0 °F 55.0 °F 55% 29.72 in 10.0 mi South 28.8 mph 39.1 mph N/A   Clear
1:53 PM 72.0 °F 55.0 °F 55% 29.70 in 10.0 mi South 21.9 mph 32.2 mph N/A   Clear
2:53 PM 71.1 °F 54.0 °F 55% 29.70 in 10.0 mi South 24.2 mph 33.4 mph N/A   Clear
3:53 PM 72.0 °F 52.0 °F 49% 29.70 in 10.0 mi South 18.4 mph 27.6 mph 0.00 in   Clear
4:53 PM 70.0 °F 50.0 °F 49% 29.70 in 10.0 mi South 17.3 mph 27.6 mph N/A   Clear
5:53 PM 70.0 °F 51.1 °F 51% 29.71 in 10.0 mi South 15.0 mph - N/A   Clear
6:53 PM 70.0 °F 50.0 °F 49% 29.70 in 10.0 mi South 19.6 mph 28.8 mph N/A   Clear
7:53 PM 69.1 °F 50.0 °F 51% 29.70 in 10.0 mi South 18.4 mph 28.8 mph N/A   Clear
8:53 PM 66.9 °F 51.1 °F 57% 29.70 in 10.0 mi South 18.4 mph 28.8 mph N/A   Clear
10:53 PM 66.9 °F 51.1 °F 57% 29.69 in 10.0 mi South 19.6 mph 29.9 mph N/A   Clear
11:53 PM 66.9 °F 53.1 °F 61% 29.70 in 10.0 mi South 19.6 mph 28.8 mph N/A   Overcast